"Platform","Muskegon Pier"
"Latitude (deg)",43.2275
"Longitude (deg)",-86.3394
"Water Depth (m)",8
"Sensor Device","System Power Controller board voltage input"
"Sensor Type","Station 12V power voltage"
"Sensor Units","voltage"
"Measurement","A sample"
"Time means","Time at sample (UTC time zone)"

"Note:","This data was collected for research purposes."
"Note:","Minimal quality checking has been performed so data may contain known or unknown errors."
"Note:","Data provided by NOAA. Please credit NOAA."
"Note:","For more info see www.glerl.noaa.gov/res/recon"

"Time (UTC)","Power"
"YYYY/MM/DD HH:MM","volts"
2023/04/18 21:50, 14.57
2023/04/18 22:00, 14.72
2023/04/18 22:10, 14.75
2023/04/18 22:20, 14.72
2023/04/18 22:30, 14.57
2023/04/18 22:40, 14.60
2023/04/18 22:50, 14.65
2023/04/18 23:00, 14.64
2023/04/18 23:10, 14.66
2023/04/18 23:20, 14.57
2023/04/18 23:30, 14.71
2023/04/18 23:40, 14.67
2023/04/18 23:50, 14.59
2023/04/19 00:00, 14.70
2023/04/19 00:10, 14.56
2023/04/19 00:20, 14.58
2023/04/19 00:30, 14.75
2023/04/19 00:40, 14.69
2023/04/19 00:50, 14.62
2023/04/19 01:00, 14.58
2023/04/19 01:10, 14.59
2023/04/19 01:20, 14.64
2023/04/19 01:30, 14.75
2023/04/19 01:40, 14.70
2023/04/19 01:50, 14.71
2023/04/19 02:00, 14.58
2023/04/19 02:10, 14.61
2023/04/19 02:20, 14.64
2023/04/19 02:30, 14.70
2023/04/19 02:40, 14.65
2023/04/19 02:50, 14.60
2023/04/19 03:00, 14.58
2023/04/19 03:10, 14.60
2023/04/19 03:20, 14.64
2023/04/19 03:30, 14.70
2023/04/19 03:40, 14.67
2023/04/19 03:50, 14.56
2023/04/19 04:00, 14.64
2023/04/19 04:10, 14.63
2023/04/19 04:20, 14.71
2023/04/19 04:30, 14.64
2023/04/19 04:40, 14.61
2023/04/19 04:50, 14.54
2023/04/19 05:00, 14.62
2023/04/19 05:10, 14.64
2023/04/19 05:20, 14.62
2023/04/19 05:30, 14.52
2023/04/19 05:40, 14.54
2023/04/19 05:50, 14.61
2023/04/19 06:00, 14.65
2023/04/19 06:10, 14.65
2023/04/19 06:20, 14.52
2023/04/19 06:30, 14.56
2023/04/19 06:40, 14.65
2023/04/19 06:50, 14.53
2023/04/19 07:00, 14.52
2023/04/19 07:10, 14.67
2023/04/19 07:20, 14.70
2023/04/19 07:30, 14.62
2023/04/19 07:40, 14.56
2023/04/19 07:50, 14.53
2023/04/19 08:00, 14.65
2023/04/19 08:10, 14.61
2023/04/19 08:20, 14.59
2023/04/19 08:30, 14.60
2023/04/19 08:40, 14.62
2023/04/19 08:50, 14.69
2023/04/19 09:00, 14.59
2023/04/19 09:10, 14.56
2023/04/19 09:20, 14.68
2023/04/19 09:30, 14.62
2023/04/19 09:40, 14.59
2023/04/19 09:50, 14.61
2023/04/19 10:00, 14.67
2023/04/19 10:10, 14.68
2023/04/19 10:20, 14.64
2023/04/19 10:30, 14.58
2023/04/19 10:40, 14.78
2023/04/19 10:50, 14.59
2023/04/19 11:00, 14.66
2023/04/19 11:10, 14.59
2023/04/19 11:20, 14.54
2023/04/19 11:30, 14.67
2023/04/19 11:40, 14.67
2023/04/19 11:50, 14.52
2023/04/19 12:00, 14.61
2023/04/19 12:10, 14.53
2023/04/19 12:20, 14.62
2023/04/19 12:30, 14.66
2023/04/19 12:40, 14.59
2023/04/19 12:50, 14.55
2023/04/19 13:00, 14.72
2023/04/19 13:10, 14.70
2023/04/19 13:20, 14.69
2023/04/19 13:30, 14.53
2023/04/19 13:40, 14.55
2023/04/19 13:50, 14.71
2023/04/19 14:00, 14.64
2023/04/19 14:10, 14.71
2023/04/19 14:20, 14.55
2023/04/19 14:30, 14.58
2023/04/19 14:40, 14.57
2023/04/19 14:50, 14.55
2023/04/19 15:00, 14.55
2023/04/19 15:10, 14.60
2023/04/19 15:20, 14.69
2023/04/19 15:30, 14.61
2023/04/19 15:40, 14.51
2023/04/19 15:50, 14.73
2023/04/19 16:00, 14.61
2023/04/19 16:10, 14.63
2023/04/19 16:20, 14.68
2023/04/19 16:30, 14.63
2023/04/19 16:40, 14.57
2023/04/19 16:50, 14.72
2023/04/19 17:00, 14.70
2023/04/19 17:10, 14.59
2023/04/19 17:20, 14.64
2023/04/19 17:30, 14.67
2023/04/19 17:40, 14.57
2023/04/19 17:50, 14.58
2023/04/19 18:00, 14.59
2023/04/19 18:10, 14.56
2023/04/19 18:20, 14.74
2023/04/19 18:30, 14.70
2023/04/19 18:40, 14.59
2023/04/19 18:50, 14.63
2023/04/19 19:00, 14.61
2023/04/19 19:10, 14.60
2023/04/19 19:20, 14.58
2023/04/19 19:30, 14.58
2023/04/19 19:40, 14.70
2023/04/19 19:50, 14.64
2023/04/19 20:00, 14.73
2023/04/19 20:10, 14.65
2023/04/19 20:20, 14.63
2023/04/19 20:30, 14.71
2023/04/19 20:40, 14.71
2023/04/19 20:50, 14.75
2023/04/19 21:00, 14.62
2023/04/19 21:10, 14.58
2023/04/19 21:20, 14.58
2023/04/19 21:30, 14.70
2023/04/19 21:40, 14.59
2023/04/19 21:50, 14.75
2023/04/19 22:00, 14.57
2023/04/19 22:10, 14.57
2023/04/19 22:20, 14.63
2023/04/19 22:30, 14.65
2023/04/19 22:40, 14.76
2023/04/19 22:50, 14.57
2023/04/19 23:00, 14.60
2023/04/19 23:10, 14.69
2023/04/19 23:20, 14.73
2023/04/19 23:30, 14.63
2023/04/19 23:40, 14.57
2023/04/19 23:50, 14.60
2023/04/20 00:00, 14.60
2023/04/20 00:10, 14.58
2023/04/20 00:20, 14.69
2023/04/20 00:30, 14.76
2023/04/20 00:40, 14.58
2023/04/20 00:50, 14.60
2023/04/20 01:00, 14.69
2023/04/20 01:10, 14.66
2023/04/20 01:20, 14.72
2023/04/20 01:30, 14.56
2023/04/20 01:40, 14.62
2023/04/20 01:50, 14.61
2023/04/20 02:00, 14.65
2023/04/20 02:10, 14.70
2023/04/20 02:20, 14.69
2023/04/20 02:30, 14.64
2023/04/20 02:40, 14.76
2023/04/20 02:50, 14.63
2023/04/20 03:00, 14.56
2023/04/20 03:10, 14.68
2023/04/20 03:20, 14.58
2023/04/20 03:30, 14.72
2023/04/20 03:40, 14.68
2023/04/20 03:50, 14.67
2023/04/20 04:00, 14.66
2023/04/20 04:10, 14.63
2023/04/20 04:20, 14.56
2023/04/20 04:30, 14.68
2023/04/20 04:40, 14.68
2023/04/20 04:50, 14.71
2023/04/20 05:00, 14.53
2023/04/20 05:10, 14.62
2023/04/20 05:20, 14.64
2023/04/20 05:30, 14.74
2023/04/20 05:40, 14.68
2023/04/20 05:50, 14.68
2023/04/20 06:00, 14.61
2023/04/20 06:10, 14.61
2023/04/20 06:20, 14.58
2023/04/20 06:30, 14.69
2023/04/20 06:40, 14.61
2023/04/20 06:50, 14.68
2023/04/20 07:00, 14.57
2023/04/20 07:10, 14.63
2023/04/20 07:20, 14.59
2023/04/20 07:30, 14.72
2023/04/20 07:40, 14.71
2023/04/20 07:50, 14.74
2023/04/20 08:00, 14.71
2023/04/20 08:10, 14.61
2023/04/20 08:20, 14.38
2023/04/20 08:30, 14.50
2023/04/20 08:40, 14.65
2023/04/20 08:50, 14.59
2023/04/20 09:00, 14.65
2023/04/20 09:10, 14.63
2023/04/20 09:20, 14.54
2023/04/20 09:30, 14.69
2023/04/20 09:40, 14.58
2023/04/20 09:50, 14.59
2023/04/20 10:00, 14.68
2023/04/20 10:10, 14.56
2023/04/20 10:20, 14.68
2023/04/20 10:30, 14.59
2023/04/20 10:40, 14.57
2023/04/20 10:50, 14.70
2023/04/20 11:00, 14.75
2023/04/20 11:10, 14.70
2023/04/20 11:20, 14.56
2023/04/20 11:30, 14.58
2023/04/20 11:40, 14.70
2023/04/20 11:50, 14.70
2023/04/20 12:00, 14.63
2023/04/20 12:10, 14.58
2023/04/20 12:20, 14.62
2023/04/20 12:30, 14.61
2023/04/20 12:40, 14.74
2023/04/20 12:50, 14.58
2023/04/20 13:00, 14.61
2023/04/20 13:10, 14.64
2023/04/20 13:20, 14.73
2023/04/20 13:30, 14.72
2023/04/20 13:40, 14.65
2023/04/20 13:50, 14.62
2023/04/20 14:00, 14.71
2023/04/20 14:10, 14.75
2023/04/20 14:20, 14.66
2023/04/20 14:30, 14.69
2023/04/20 14:40, 14.62
2023/04/20 14:50, 14.63
2023/04/20 15:00, 14.67
2023/04/20 15:10, 14.56
2023/04/20 15:20, 14.68
2023/04/20 15:30, 14.61
2023/04/20 15:40, 14.56
2023/04/20 15:50, 14.66
2023/04/20 16:00, 14.60
2023/04/20 16:10, 14.67
2023/04/20 16:20, 14.70
2023/04/20 16:30, 14.57
2023/04/20 16:40, 14.61
2023/04/20 16:50, 14.67
2023/04/20 17:00, 14.65
2023/04/20 17:10, 14.70
2023/04/20 17:20, 14.58
2023/04/20 17:30, 14.72
2023/04/20 17:40, 14.73
2023/04/20 17:50, 14.70
2023/04/20 18:00, 14.63
2023/04/20 18:10, 14.59
2023/04/20 18:20, 14.60
2023/04/20 18:30, 14.69
2023/04/20 18:40, 14.59
2023/04/20 18:50, 14.62
2023/04/20 19:00, 14.57
2023/04/20 19:10, 14.73
2023/04/20 19:20, 14.71
2023/04/20 19:30, 14.61
2023/04/20 19:40, 14.57
2023/04/20 19:50, 14.69
2023/04/20 20:00, 14.77
2023/04/20 20:10, 14.66
2023/04/20 20:20, 14.56
2023/04/20 20:30, 14.56
2023/04/20 20:40, 14.74
2023/04/20 20:50, 14.55
2023/04/20 21:00, 14.58
2023/04/20 21:10, 14.57
2023/04/20 21:20, 14.62
2023/04/20 21:30, 14.69
2023/04/20 21:40, 14.75
2023/04/20 21:50, 14.60
2023/04/20 22:00, 14.61
2023/04/20 22:10, 14.63
2023/04/20 22:20, 14.69
2023/04/20 22:30, 14.74
2023/04/20 22:40, 14.59
2023/04/20 22:50, 14.54
2023/04/20 23:00, 14.63
2023/04/20 23:10, 14.61
2023/04/20 23:20, 14.66
2023/04/20 23:30, 14.72
2023/04/20 23:40, 14.64
2023/04/20 23:50, 14.60
2023/04/21 00:00, 14.59
2023/04/21 00:10, 14.62
2023/04/21 00:20, 14.65
2023/04/21 00:30, 14.64
2023/04/21 00:40, 14.60
2023/04/21 00:50, 14.58
2023/04/21 01:00, 14.57
2023/04/21 01:10, 14.63
2023/04/21 01:20, 14.62
2023/04/21 01:30, 14.63
2023/04/21 01:40, 14.57
2023/04/21 01:50, 14.60
2023/04/21 02:00, 14.61
2023/04/21 02:10, 14.58
2023/04/21 02:20, 14.77
2023/04/21 02:30, 14.68
2023/04/21 02:40, 14.59
2023/04/21 02:50, 14.69
2023/04/21 03:00, 14.65
2023/04/21 03:10, 14.66
2023/04/21 03:20, 14.61
2023/04/21 03:30, 14.60
2023/04/21 03:40, 14.67
2023/04/21 03:50, 14.77
2023/04/21 04:00, 14.71
2023/04/21 04:10, 14.70
2023/04/21 04:20, 14.63
2023/04/21 04:30, 14.59
2023/04/21 04:40, 14.62
2023/04/21 04:50, 14.68
2023/04/21 05:00, 14.59
2023/04/21 05:10, 14.62
2023/04/21 05:20, 14.60
2023/04/21 05:30, 14.62
2023/04/21 05:40, 14.61
2023/04/21 05:50, 14.56
2023/04/21 06:00, 14.55
2023/04/21 06:10, 14.67
2023/04/21 06:20, 14.70
2023/04/21 06:30, 14.70
2023/04/21 06:40, 14.61
2023/04/21 06:50, 14.53
2023/04/21 07:00, 14.56
2023/04/21 07:10, 14.72
2023/04/21 07:20, 14.74
2023/04/21 07:30, 14.59
2023/04/21 07:40, 14.55
2023/04/21 07:50, 14.55
2023/04/21 08:00, 14.67
2023/04/21 08:10, 14.60
2023/04/21 08:20, 14.62
2023/04/21 08:30, 14.57
2023/04/21 08:40, 14.62
2023/04/21 08:50, 14.67
2023/04/21 09:00, 14.74
2023/04/21 09:10, 14.64
2023/04/21 09:20, 14.56
2023/04/21 09:30, 14.68
2023/04/21 09:40, 14.71
2023/04/21 09:50, 14.66
2023/04/21 10:00, 14.52
2023/04/21 10:10, 14.56
2023/04/21 10:20, 14.71
2023/04/21 10:30, 14.67
2023/04/21 10:40, 14.69
2023/04/21 10:50, 14.58
2023/04/21 11:00, 14.73
2023/04/21 11:10, 14.70
2023/04/21 11:20, 14.63
2023/04/21 11:30, 14.55
2023/04/21 11:40, 14.53
2023/04/21 11:50, 14.66
2023/04/21 12:00, 14.67
2023/04/21 12:10, 14.69
2023/04/21 12:20, 14.57
2023/04/21 12:30, 14.61
2023/04/21 12:40, 14.74
2023/04/21 12:50, 14.61
2023/04/21 13:00, 14.67
2023/04/21 13:10, 14.58
2023/04/21 13:20, 14.59
2023/04/21 13:30, 14.58
2023/04/21 13:40, 14.60
2023/04/21 13:50, 14.66
2023/04/21 14:00, 14.63
2023/04/21 14:10, 14.66
2023/04/21 14:20, 14.57
2023/04/21 14:30, 14.66
2023/04/21 14:40, 14.73
2023/04/21 14:50, 14.67
2023/04/21 15:00, 14.62
2023/04/21 15:10, 14.57
2023/04/21 15:20, 14.69
2023/04/21 15:30, 14.59
2023/04/21 15:40, 14.54
2023/04/21 15:50, 14.67
2023/04/21 16:00, 14.56
2023/04/21 16:10, 14.60
2023/04/21 16:20, 14.55
2023/04/21 16:30, 14.68
2023/04/21 16:40, 14.70
2023/04/21 16:50, 14.55
2023/04/21 17:00, 14.54
2023/04/21 17:10, 14.57
2023/04/21 17:20, 14.63
2023/04/21 17:30, 14.68
2023/04/21 17:40, 14.71
2023/04/21 17:50, 14.57
2023/04/21 18:00, 14.59
2023/04/21 18:10, 14.59
2023/04/21 18:20, 14.73
2023/04/21 18:30, 14.68
2023/04/21 18:40, 14.62
2023/04/21 18:50, 14.64
2023/04/21 19:00, 14.63
2023/04/21 19:10, 14.75
2023/04/21 19:20, 14.69
2023/04/21 19:30, 14.68
2023/04/21 19:40, 14.54
2023/04/21 19:50, 14.70
2023/04/21 20:00, 14.65
2023/04/21 20:10, 14.70
2023/04/21 20:20, 14.70
2023/04/21 20:30, 14.59
2023/04/21 20:40, 14.70
2023/04/21 20:50, 14.59
2023/04/21 21:00, 14.62
2023/04/21 21:10, 14.68
2023/04/21 21:20, 14.61
2023/04/21 21:30, 14.57
2023/04/21 21:40, 14.72
2023/04/21 21:50, 14.56
2023/04/21 22:00, 14.68
2023/04/21 22:10, 14.58
2023/04/21 22:20, 14.56
2023/04/21 22:30, 14.52
2023/04/21 22:40, 14.72
2023/04/21 22:50, 14.57
2023/04/21 23:00, 14.57
2023/04/21 23:10, 14.57
2023/04/21 23:20, 14.59
2023/04/21 23:30, 14.58
2023/04/21 23:40, 14.56
2023/04/21 23:50, 14.72
2023/04/22 00:00, 14.69
2023/04/22 00:10, 14.70
2023/04/22 00:20, 14.68
2023/04/22 00:30, 14.56
2023/04/22 00:40, 14.60
2023/04/22 00:50, 14.75
2023/04/22 01:00, 14.71
2023/04/22 01:10, 14.73
2023/04/22 01:20, 14.55
2023/04/22 01:30, 14.58
2023/04/22 01:40, 14.73
2023/04/22 01:50, 14.54
2023/04/22 02:00, 14.61
2023/04/22 02:10, 14.70
2023/04/22 02:20, 14.53
2023/04/22 02:30, 14.69
2023/04/22 02:40, 14.60
2023/04/22 02:50, 14.58
2023/04/22 03:00, 14.61
2023/04/22 03:10, 14.60
2023/04/22 03:20, 14.73
2023/04/22 03:30, 14.64
2023/04/22 03:40, 14.57
2023/04/22 03:50, 14.61
2023/04/22 04:00, 14.60
2023/04/22 04:10, 14.61
2023/04/22 04:20, 14.54
2023/04/22 04:30, 14.56
2023/04/22 04:40, 14.71
2023/04/22 04:50, 14.73
2023/04/22 05:00, 14.65
2023/04/22 05:10, 14.53
2023/04/22 05:20, 14.58
2023/04/22 05:30, 14.64
2023/04/22 05:40, 14.69
2023/04/22 05:50, 14.57
2023/04/22 06:00, 14.58
2023/04/22 06:10, 14.58
2023/04/22 06:20, 14.54
2023/04/22 06:30, 14.64
2023/04/22 06:40, 14.57
2023/04/22 06:50, 14.53
2023/04/22 07:00, 14.54
2023/04/22 07:10, 14.66
2023/04/22 07:20, 14.68
2023/04/22 07:30, 14.58
2023/04/22 07:40, 14.55
2023/04/22 07:50, 14.57
2023/04/22 08:00, 14.66
2023/04/22 08:10, 14.58
2023/04/22 08:20, 14.67
2023/04/22 08:30, 14.54
2023/04/22 08:40, 14.59
2023/04/22 08:50, 14.63
2023/04/22 09:00, 14.63
2023/04/22 09:10, 14.68
2023/04/22 09:20, 14.50
2023/04/22 09:30, 14.63
2023/04/22 09:40, 14.75
2023/04/22 09:50, 14.65
2023/04/22 10:00, 14.60
2023/04/22 10:10, 14.53
2023/04/22 10:20, 14.55
2023/04/22 10:30, 14.69
2023/04/22 10:40, 14.70
2023/04/22 10:50, 14.54
2023/04/22 11:00, 14.62
2023/04/22 11:10, 14.54
2023/04/22 11:20, 14.68
2023/04/22 11:30, 14.66
2023/04/22 11:40, 14.59
2023/04/22 11:50, 14.48
2023/04/22 12:00, 14.58
2023/04/22 12:10, 14.54
2023/04/22 12:20, 14.74
2023/04/22 12:30, 14.54
2023/04/22 12:40, 14.60
2023/04/22 12:50, 14.52
2023/04/22 13:00, 14.66
2023/04/22 13:10, 14.66
2023/04/22 13:20, 14.62
2023/04/22 13:30, 14.57
2023/04/22 13:40, 14.62
2023/04/22 13:50, 14.57
2023/04/22 14:00, 14.59
2023/04/22 14:10, 14.70
2023/04/22 14:20, 14.54
2023/04/22 14:30, 14.58
2023/04/22 14:40, 14.70
2023/04/22 14:50, 14.65
2023/04/22 15:00, 14.70
2023/04/22 15:10, 14.74
2023/04/22 15:20, 14.55
2023/04/22 15:30, 14.69
2023/04/22 15:40, 14.73
2023/04/22 15:50, 14.71
2023/04/22 16:00, 14.59
2023/04/22 16:10, 14.59
2023/04/22 16:20, 14.58
2023/04/22 16:30, 14.58
2023/04/22 16:40, 14.66
2023/04/22 16:50, 14.63
2023/04/22 17:00, 14.66
2023/04/22 17:10, 14.60
2023/04/22 17:20, 14.56
2023/04/22 17:30, 14.60
2023/04/22 17:40, 14.72
2023/04/22 17:50, 14.74
2023/04/22 18:00, 14.68
2023/04/22 18:10, 14.64
2023/04/22 18:20, 14.66
2023/04/22 18:30, 14.61
2023/04/22 18:40, 14.64
2023/04/22 18:50, 14.77
2023/04/22 19:00, 14.60
2023/04/22 19:10, 14.61
2023/04/22 19:20, 14.62
2023/04/22 19:30, 14.71
2023/04/22 19:40, 14.77
2023/04/22 19:50, 14.63
2023/04/22 20:00, 14.68
2023/04/22 20:10, 14.69
2023/04/22 20:20, 14.70
2023/04/22 20:30, 14.65
2023/04/22 20:40, 14.61
2023/04/22 20:50, 14.60
2023/04/22 21:00, 14.71
2023/04/22 21:10, 14.67
2023/04/22 21:20, 14.74
2023/04/22 21:30, 14.60
2023/04/22 21:40, 14.64
2023/04/22 21:50, 14.61
2023/04/22 22:00, 14.58
2023/04/22 22:10, 14.57
2023/04/22 22:20, 14.61
2023/04/22 22:30, 14.61
2023/04/22 22:40, 14.74
2023/04/22 22:50, 14.65
2023/04/22 23:00, 14.57
2023/04/22 23:10, 14.64
2023/04/22 23:20, 14.56
2023/04/22 23:30, 14.68
2023/04/22 23:40, 14.59
2023/04/22 23:50, 14.63
2023/04/23 00:00, 14.76
2023/04/23 00:10, 14.58
2023/04/23 00:20, 14.62
2023/04/23 00:30, 14.69
2023/04/23 00:40, 14.61
2023/04/23 00:50, 14.56
2023/04/23 01:00, 14.59
2023/04/23 01:10, 14.58
2023/04/23 01:20, 14.72
2023/04/23 01:30, 14.60
2023/04/23 01:40, 14.58
2023/04/23 01:50, 14.68
2023/04/23 02:00, 14.70
2023/04/23 02:10, 14.77
2023/04/23 02:20, 14.60
2023/04/23 02:30, 14.60
2023/04/23 02:40, 14.67
2023/04/23 02:50, 14.64
2023/04/23 03:00, 14.64
2023/04/23 03:10, 14.61
2023/04/23 03:20, 14.68
2023/04/23 03:30, 14.69
2023/04/23 03:40, 14.60
2023/04/23 03:50, 14.65
2023/04/23 04:00, 14.58
2023/04/23 04:10, 14.62
2023/04/23 04:20, 14.71
2023/04/23 04:30, 14.61
2023/04/23 04:40, 14.71
2023/04/23 04:50, 14.71
2023/04/23 05:00, 14.59
2023/04/23 05:10, 14.56
2023/04/23 05:20, 14.53
2023/04/23 05:30, 14.73
2023/04/23 05:40, 14.71
2023/04/23 05:50, 14.66
2023/04/23 06:00, 14.60
2023/04/23 06:10, 14.61
2023/04/23 06:20, 14.65
2023/04/23 06:30, 14.68
2023/04/23 06:40, 14.57
2023/04/23 06:50, 14.70
2023/04/23 07:00, 14.64
2023/04/23 07:10, 14.64
2023/04/23 07:20, 14.58
2023/04/23 07:30, 14.57
2023/04/23 07:40, 14.73
2023/04/23 07:50, 14.65
2023/04/23 08:00, 14.52
2023/04/23 08:10, 14.54
2023/04/23 08:20, 14.53
2023/04/23 08:30, 14.65
2023/04/23 08:40, 14.65
2023/04/23 08:50, 14.57
2023/04/23 09:00, 14.57
2023/04/23 09:10, 14.54
2023/04/23 09:20, 14.72
2023/04/23 09:30, 14.59
2023/04/23 09:40, 14.66
2023/04/23 09:50, 14.66
2023/04/23 10:00, 14.57
2023/04/23 10:10, 14.63
2023/04/23 10:20, 14.74
2023/04/23 10:30, 14.69
2023/04/23 10:40, 14.69
2023/04/23 10:50, 14.62
2023/04/23 11:00, 14.57
2023/04/23 11:10, 14.55
2023/04/23 11:20, 14.73
2023/04/23 11:30, 14.61
2023/04/23 11:40, 14.62
2023/04/23 11:50, 14.57
2023/04/23 12:00, 14.67
2023/04/23 12:10, 14.56
2023/04/23 12:20, 14.56
2023/04/23 12:30, 14.63
2023/04/23 12:40, 14.73
2023/04/23 12:50, 14.75
2023/04/23 13:00, 14.58
2023/04/23 13:10, 14.67
2023/04/23 13:20, 14.73
2023/04/23 13:30, 14.59
2023/04/23 13:40, 14.59
2023/04/23 13:50, 14.58
2023/04/23 14:00, 14.66
2023/04/23 14:10, 14.70
2023/04/23 14:20, 14.62
2023/04/23 14:30, 14.57
2023/04/23 14:40, 14.74
2023/04/23 14:50, 14.65
2023/04/23 15:00, 14.57
2023/04/23 15:10, 14.67
2023/04/23 15:20, 14.75
2023/04/23 15:30, 14.62
2023/04/23 15:40, 14.62
2023/04/23 15:50, 14.58
2023/04/23 16:00, 14.76
2023/04/23 16:10, 14.72
2023/04/23 16:20, 14.68
2023/04/23 16:30, 14.64
2023/04/23 16:40, 14.69
2023/04/23 16:50, 14.69
2023/04/23 17:00, 14.64
2023/04/23 17:10, 14.59
2023/04/23 17:20, 14.55
2023/04/23 17:30, 14.59
2023/04/23 17:40, 14.62
2023/04/23 17:50, 14.66
2023/04/23 18:00, 14.79
2023/04/23 18:10, 14.74
2023/04/23 18:20, 14.77
2023/04/23 18:30, 14.64
2023/04/23 18:40, 14.53
2023/04/23 18:50, 14.70
2023/04/23 19:00, 14.76
2023/04/23 19:10, 14.66
2023/04/23 19:20, 14.52
2023/04/23 19:30, 14.57
2023/04/23 19:40, 14.70
2023/04/23 19:50, 14.71
2023/04/23 20:00, 14.71
2023/04/23 20:10, 14.44
2023/04/23 20:20, 14.57
2023/04/23 20:30, 14.52
2023/04/23 20:40, 14.57
2023/04/23 20:50, 14.46
2023/04/23 21:00, 14.50
2023/04/23 21:10, 14.57
2023/04/23 21:20, 14.63
2023/04/23 21:30, 14.52
2023/04/23 21:40, 14.44
2023/04/23 21:50, 14.64
2023/04/23 22:00, 14.72
2023/04/23 22:10, 14.54
2023/04/23 22:20, 14.51
2023/04/23 22:30, 14.42
2023/04/23 22:40, 14.50
2023/04/23 22:50, 14.60
2023/04/23 23:00, 14.55
2023/04/23 23:10, 15.02
2023/04/23 23:20, 14.59
2023/04/23 23:30, 15.03
2023/04/23 23:40, 14.76
2023/04/23 23:50, 14.60
2023/04/24 00:00, 15.11
2023/04/24 00:10, 15.06
2023/04/24 00:20, 14.71
2023/04/24 00:30, 15.06
2023/04/24 00:40, 14.89
2023/04/24 00:50, 15.09
2023/04/24 01:00, 15.11
2023/04/24 01:10, 15.11
2023/04/24 01:20, 15.18
2023/04/24 01:30, 15.10
2023/04/24 01:40, 15.10
2023/04/24 01:50, 15.09
2023/04/24 02:00, 15.04
2023/04/24 02:10, 15.15
2023/04/24 02:20, 15.10
2023/04/24 02:30, 15.09
2023/04/24 02:40, 15.05
2023/04/24 02:50, 15.07
2023/04/24 03:00, 15.11
2023/04/24 03:10, 15.08
2023/04/24 03:20, 15.03
2023/04/24 03:30, 15.11
2023/04/24 03:40, 15.09
2023/04/24 03:50, 15.12
2023/04/24 04:00, 15.06
2023/04/24 04:10, 15.05
2023/04/24 04:20, 15.27
2023/04/24 04:30, 15.18
2023/04/24 04:40, 15.07
2023/04/24 04:50, 15.10
2023/04/24 05:00, 15.15
2023/04/24 05:10, 15.06
2023/04/24 05:20, 15.11
2023/04/24 05:30, 15.10
2023/04/24 05:40, 15.12
2023/04/24 05:50, 15.16
2023/04/24 06:00, 15.08
2023/04/24 06:10, 15.05
2023/04/24 06:20, 14.97
2023/04/24 06:30, 15.12
2023/04/24 06:40, 15.10
2023/04/24 06:50, 15.15
2023/04/24 07:00, 15.11
2023/04/24 07:10, 15.06
2023/04/24 07:20, 15.11
2023/04/24 07:30, 15.14
2023/04/24 07:40, 15.03
2023/04/24 07:50, 14.98
2023/04/24 08:00, 15.01
2023/04/24 08:10, 15.03
2023/04/24 08:20, 15.13
2023/04/24 08:30, 15.08
2023/04/24 08:40, 14.94
2023/04/24 08:50, 14.97
2023/04/24 09:00, 15.12
2023/04/24 09:10, 15.14
2023/04/24 09:20, 15.13
2023/04/24 09:30, 15.13
2023/04/24 09:40, 14.98
2023/04/24 09:50, 14.95
2023/04/24 10:00, 14.98
2023/04/24 10:10, 14.95
2023/04/24 10:20, 15.17
2023/04/24 10:30, 15.13
2023/04/24 10:40, 15.11
2023/04/24 10:50, 14.99
2023/04/24 11:00, 15.15
2023/04/24 11:10, 15.13
2023/04/24 11:20, 15.12
2023/04/24 11:30, 15.13
2023/04/24 11:40, 14.95
2023/04/24 11:50, 15.12
2023/04/24 12:00, 15.15
2023/04/24 12:10, 15.20
2023/04/24 12:20, 15.07
2023/04/24 12:30, 15.31
2023/04/24 12:40, 15.26
2023/04/24 12:50, 15.09
2023/04/24 13:00, 15.08
2023/04/24 13:10, 15.11
2023/04/24 13:20, 15.31
2023/04/24 13:30, 15.13
2023/04/24 13:40, 15.10
2023/04/24 13:50, 15.07
2023/04/24 14:00, 15.12
2023/04/24 14:10, 15.23
2023/04/24 14:20, 15.06
2023/04/24 14:30, 15.10
2023/04/24 14:40, 15.07
2023/04/24 14:50, 15.23
2023/04/24 15:00, 15.02
2023/04/24 15:10, 15.31
2023/04/24 15:20, 15.10
2023/04/24 15:30, 15.10
2023/04/24 15:40, 15.06
2023/04/24 15:50, 15.04
2023/04/24 16:00, 15.05
2023/04/24 16:10, 15.05
2023/04/24 16:20, 15.12
2023/04/24 16:30, 15.18
2023/04/24 16:40, 14.95
2023/04/24 16:50, 14.91
2023/04/24 17:00, 15.10
2023/04/24 17:10, 15.12
2023/04/24 17:20, 15.08
2023/04/24 17:30, 15.02
2023/04/24 17:40, 14.99
2023/04/24 17:50, 14.96
2023/04/24 18:00, 15.22
2023/04/24 18:10, 15.24
2023/04/24 18:20, 15.06
2023/04/24 18:30, 14.92
2023/04/24 18:40, 15.15
2023/04/24 18:50, 14.96
2023/04/24 19:00, 15.26
2023/04/24 19:10, 15.42
2023/04/24 19:20, 15.40
2023/04/24 19:30, 14.93
2023/04/24 19:40, 14.97
2023/04/24 19:50, 15.08
2023/04/24 20:00, 15.24
2023/04/24 20:10, 14.93
2023/04/24 20:20, 14.87
2023/04/24 20:30, 14.91
2023/04/24 20:40, 15.01
2023/04/24 20:50, 14.63
2023/04/24 21:00, 14.71
2023/04/24 21:10, 14.71
2023/04/24 21:20, 14.64
2023/04/24 21:30, 14.55
2023/04/24 21:40, 14.62
2023/04/24 21:50, 14.76
2023/04/24 22:00, 14.70
2023/04/24 22:10, 14.71
2023/04/24 22:20, 14.72
2023/04/24 22:30, 14.59
2023/04/24 22:40, 14.78
2023/04/24 22:50, 14.70
2023/04/24 23:00, 14.58
2023/04/24 23:10, 14.55
2023/04/24 23:20, 14.75
2023/04/24 23:30, 14.65
2023/04/24 23:40, 14.57
2023/04/24 23:50, 14.55
2023/04/25 00:00, 14.68
2023/04/25 00:10, 14.62
2023/04/25 00:20, 14.68
2023/04/25 00:30, 14.60
2023/04/25 00:40, 14.74
2023/04/25 00:50, 14.75
2023/04/25 01:00, 14.70
2023/04/25 01:10, 14.67
2023/04/25 01:20, 14.68
2023/04/25 01:30, 14.64
2023/04/25 01:40, 14.67
2023/04/25 01:50, 14.76
2023/04/25 02:00, 14.57
2023/04/25 02:10, 14.60
2023/04/25 02:20, 14.56
2023/04/25 02:30, 14.66
2023/04/25 02:40, 14.78
2023/04/25 02:50, 14.72
2023/04/25 03:00, 14.58
2023/04/25 03:10, 14.74
2023/04/25 03:20, 14.70
2023/04/25 03:30, 14.60
2023/04/25 03:40, 14.56
2023/04/25 03:50, 14.65
2023/04/25 04:00, 14.70
2023/04/25 04:10, 14.54
2023/04/25 04:20, 14.68
2023/04/25 04:30, 14.63
2023/04/25 04:40, 14.69
2023/04/25 04:50, 14.60
2023/04/25 05:00, 14.56
2023/04/25 05:10, 14.71
2023/04/25 05:20, 14.72
2023/04/25 05:30, 14.58
2023/04/25 05:40, 14.55
2023/04/25 05:50, 14.61
2023/04/25 06:00, 14.65
2023/04/25 06:10, 14.59
2023/04/25 06:20, 14.70
2023/04/25 06:30, 14.59
2023/04/25 06:40, 14.55
2023/04/25 06:50, 14.56
2023/04/25 07:00, 14.71
2023/04/25 07:10, 14.70
2023/04/25 07:20, 14.66
2023/04/25 07:30, 14.59
2023/04/25 07:40, 14.51
2023/04/25 07:50, 14.70
2023/04/25 08:00, 14.70
2023/04/25 08:10, 14.71
2023/04/25 08:20, 14.61
2023/04/25 08:30, 14.70
2023/04/25 08:40, 14.66
2023/04/25 08:50, 14.51
2023/04/25 09:00, 14.60
2023/04/25 09:10, 14.58
2023/04/25 09:20, 14.68